Location: Beneden-Haastrecht
(52.0012°N, 4.7557°E)
Time: 10:42:04
(UTC+00:00)

X-37B - Pass Details

Date: 22 January 2021
Orbit: 383 x 391 km, 45.0° (Epoch: 27 February)

Event Time Altitude Azimuth Distance (km) Brightness Sun altitude
Rises 18:44:57 0° 242° (WSW) 2,273 5.5 -23.2°
Reaches altitude 10° 18:47:17 10° 227° (SW) 1,420 4.0 -23.6°
Enters shadow 18:48:34 18° 207° (SSW) 1,055 3.1 -23.8°
